Starlink 11654

operational
NORAD ID: 63265 Int'l Des: 2025-053 Owner: SPXS Country: US Constellation: starlink
LEOCIRCULAR

Starlink 11654について

説明を読み込み中...

リアルタイム位置

3D地球を読み込み中...

次回通過

高度履歴

Altitude vs Time

uPlot chart will show altitude changes over time

軌道要素

1 63265U 25053A 25260.51302619 .00212812 00000-0 16181-2 0 9994
2 63265 43.0012 76.0508 0002998 320.2182 39.8466 15.70863767 30432
Epoch: Sep 17, 2025 • Age: 19 hours

現在のステータス

高度 357.9 km
速度 7.70 km/s
衛星直下点 29.70°N, 108.56°E
打ち上げ日 Mar 15, 2025
運用期間 0.5 years
タイプ internet

技術仕様

分類 Payload
質量 960.00 kg
乾燥質量 910.00 kg
総質量 960.00 kg
長さ 0.30 m
直径 4.10 m
スパン 29.00 m
形状 Box + pan
製造者 SPXS
バスタイプ Starlink V2MD
フェーズステータス In Orbit
所有者/国 SPXS/US

大規模コンステレーション

Loading constellations...